TimeCDT,TemperatureF,Dew PointF,Humidity,Sea Level PressureIn,VisibilityMPH,Wind Direction,Wind SpeedMPH,Gust SpeedMPH,PrecipitationIn,Events,Conditions,WindDirDegrees,DateUTC
12:53 AM,36.0,34.0,93,30.15,10.0,WNW,5.8,-,N/A,,Clear,290,2012-10-06 05:53:00
1:53 AM,35.1,32.0,89,30.16,10.0,West,5.8,-,N/A,,Clear,270,2012-10-06 06:53:00
2:53 AM,35.1,32.0,89,30.16,10.0,West,5.8,-,N/A,,Clear,270,2012-10-06 07:53:00
3:53 AM,33.1,30.9,92,30.16,10.0,WSW,4.6,-,N/A,,Clear,250,2012-10-06 08:53:00
4:53 AM,34.0,30.9,89,30.18,10.0,West,5.8,-,N/A,,Clear,260,2012-10-06 09:53:00
5:53 AM,32.0,30.0,92,30.19,10.0,West,4.6,-,N/A,,Clear,280,2012-10-06 10:53:00
6:53 AM,32.0,30.0,92,30.20,10.0,SW,6.9,-,N/A,,Clear,230,2012-10-06 11:53:00
7:53 AM,34.0,32.0,92,30.21,10.0,West,6.9,-,N/A,,Clear,270,2012-10-06 12:53:00
9:53 AM,43.0,32.0,65,30.22,10.0,NW,15.0,-,N/A,,Clear,310,2012-10-06 14:53:00
10:53 AM,45.0,32.0,60,30.22,10.0,NW,11.5,20.7,N/A,,Clear,310,2012-10-06 15:53:00
11:53 AM,48.0,32.0,54,30.21,10.0,WNW,15.0,18.4,N/A,,Clear,300,2012-10-06 16:53:00
12:53 PM,48.9,33.1,54,30.20,10.0,NW,12.7,18.4,N/A,,Clear,320,2012-10-06 17:53:00
1:53 PM,50.0,33.1,52,30.19,10.0,NW,13.8,-,N/A,,Clear,320,2012-10-06 18:53:00
2:53 PM,52.0,33.1,49,30.18,10.0,WNW,15.0,20.7,N/A,,Clear,300,2012-10-06 19:53:00
3:53 PM,50.0,30.9,48,30.17,10.0,WNW,9.2,23.0,N/A,,Clear,300,2012-10-06 20:53:00
4:53 PM,48.9,32.0,52,30.19,10.0,WNW,10.4,-,N/A,,Scattered Clouds,290,2012-10-06 21:53:00
5:53 PM,46.9,32.0,56,30.21,10.0,NW,10.4,-,N/A,,Overcast,320,2012-10-06 22:53:00
6:53 PM,44.1,33.1,65,30.21,10.0,NW,6.9,-,N/A,,Partly Cloudy,320,2012-10-06 23:53:00
7:53 PM,41.0,33.1,73,30.22,10.0,WNW,4.6,-,N/A,,Clear,300,2012-10-07 00:53:00
8:53 PM,37.9,33.1,83,30.22,10.0,WNW,5.8,-,N/A,,Mostly Cloudy,300,2012-10-07 01:53:00
9:53 PM,39.0,34.0,82,30.22,10.0,NW,5.8,-,N/A,,Clear,310,2012-10-07 02:53:00
10:53 PM,39.0,33.1,79,30.23,10.0,NW,5.8,-,N/A,,Clear,310,2012-10-07 03:53:00